Weather History for KVTA - December, 2012

Change the Weather History Date:

Monday, December 3, 2012

  Actual Average Record
Temperature  
Mean Temperature 56 °F -  
Max Temperature 63 °F 43 °F 76 °F (1982)
Min Temperature 50 °F 26 °F -3 °F (1976)
Degree Days  
Heating Degree Days 8    
Growing Degree Days 6 (Base 50)    
Moisture  
Dew Point 54 °F    
Average Humidity 91    
Maximum Humidity 100    
Minimum Humidity 75    
Precipitation  
Precipitation 0.03 in - - ()
Sea Level Pressure  
Sea Level Pressure 30.14 in    
Wind  
Wind Speed 2 mph (South)    
Max Wind Speed 10 mph    
Max Gust Speed -    
Visibility 4 miles    
Events Fog , Rain    
Averages and records for this station are not official NWS values.
T = Trace of Precipitation, MM = Missing Value Source: NWS Daily Summary

Daily Weather History Graph

Daily Weather History Graph

Search for Another Location

Airport or City:

Trip Planner

Search our weather history database for the weather conditions in past years. The results will help you decide how hot, cold, wet, or windy it might be!

Date:

Astronomy

Dec. 03, 2012 Rise Set
Actual Time 7:35 AM EST 5:04 PM EST
Civil Twilight 7:04 AM EST 5:34 PM EST
Nautical Twilight 6:31 AM EST 6:08 PM EST
Astronomical Twilight 5:58 AM EST 6:41 PM EST
Moon 9:50 PM EST (12/3) 10:57 AM EST (12/3)
Length of Visible Light 10h 29m
Length of Day
9h 29m
Waning Gibbous, 78% of the Moon is Illuminated
Dec 3
Waning Gibbous
Dec 6
Last Quarter
Dec 13
New
Dec 20
First Quarter
Dec 28
Full

Hourly Weather History & Observations

Time (EST) Temp. Dew Point Humidity Pressure Visibility Wind Dir Wind Speed Gust Speed Precip Events Conditions
12:32 AM 55.4 °F 55.4 °F 100% 30.14 in 0.2 mi Calm Calm - N/A Fog Fog
12:54 AM 55.9 °F 55.0 °F 97% 30.15 in 0.2 mi Calm Calm - N/A Fog Fog
1:54 AM 55.9 °F 55.0 °F 97% 30.15 in 0.2 mi Calm Calm - N/A Fog Fog
2:54 AM 55.9 °F 55.0 °F 97% 30.16 in 0.2 mi Calm Calm - N/A Fog Fog
3:54 AM 55.0 °F 54.0 °F 96% 30.15 in 0.2 mi Calm Calm - N/A Fog Fog
4:54 AM 55.0 °F 54.0 °F 96% 30.14 in 0.2 mi Calm Calm - N/A Fog Fog
5:16 AM 57.2 °F 55.4 °F 94% 30.14 in 0.5 mi South 5.8 mph - N/A Fog Fog
5:25 AM 57.2 °F 55.4 °F 94% 30.14 in 1.0 mi South 3.5 mph - N/A   Mist
5:45 AM 57.2 °F 55.4 °F 94% 30.15 in 2.0 mi Calm Calm - 0.00 in   Overcast
5:54 AM 57.0 °F 55.9 °F 96% 30.15 in 2.0 mi Calm Calm - 0.00 in Rain Light Rain
6:04 AM 57.2 °F 55.4 °F 94% 30.15 in 0.8 mi Calm Calm - 0.01 in   Overcast
6:17 AM 57.2 °F 55.4 °F 94% 30.15 in 1.0 mi Calm Calm - 0.01 in   Overcast
6:24 AM 57.2 °F 55.4 °F 94% 30.16 in 0.8 mi Calm Calm - 0.01 in   Overcast
6:35 AM 55.4 °F 55.4 °F 100% 30.16 in 1.0 mi Calm Calm - 0.01 in   Overcast
6:49 AM 57.2 °F 55.4 °F 94% 30.16 in 0.5 mi Calm Calm - 0.01 in Fog Fog
6:54 AM 57.0 °F 55.0 °F 93% 30.17 in 0.5 mi Calm Calm - 0.01 in Fog Fog
7:10 AM 57.2 °F 55.4 °F 94% 30.17 in 1.0 mi Calm Calm - N/A   Overcast
7:16 AM 57.2 °F 55.4 °F 94% 30.17 in 3.0 mi Calm Calm - N/A   Overcast
7:54 AM 57.0 °F 55.9 °F 96% 30.18 in 3.0 mi South 3.5 mph - N/A   Overcast
8:18 AM 57.2 °F 55.4 °F 94% 30.18 in 2.5 mi Calm Calm - 0.00 in   Overcast
8:42 AM 57.2 °F 55.4 °F 94% 30.18 in 3.0 mi Calm Calm - 0.00 in   Overcast
8:54 AM 57.9 °F 55.9 °F 93% 30.18 in 3.0 mi Calm Calm - 0.00 in   Overcast
9:54 AM 59.0 °F 55.9 °F 90% 30.18 in 6.0 mi South 5.8 mph - N/A   Overcast
10:39 AM 60.8 °F 57.2 °F 88% 30.17 in 10.0 mi South 6.9 mph - N/A   Mostly Cloudy
10:52 AM 60.8 °F 57.2 °F 88% 30.17 in 10.0 mi South 6.9 mph - N/A   Mostly Cloudy
10:54 AM 62.1 °F 57.0 °F 84% 30.17 in 10.0 mi South 6.9 mph - N/A   Mostly Cloudy
11:30 AM 62.6 °F 57.2 °F 82% 30.16 in 10.0 mi SSW 8.1 mph - N/A   Mostly Cloudy
11:37 AM 62.6 °F 55.4 °F 77% 30.16 in 10.0 mi SSW 9.2 mph - N/A   Overcast
11:54 AM 62.1 °F 55.9 °F 80% 30.15 in 10.0 mi SSW 8.1 mph - N/A   Overcast
12:51 PM 62.6 °F 55.4 °F 77% 30.13 in 10.0 mi SW 9.2 mph - 0.00 in   Overcast
12:54 PM 63.0 °F 55.9 °F 78% 30.13 in 10.0 mi SSW 8.1 mph - 0.00 in   Overcast
1:22 PM 62.6 °F 55.4 °F 77% 30.12 in 10.0 mi SSW 5.8 mph - N/A   Overcast
1:54 PM 63.0 °F 55.0 °F 75% 30.12 in 10.0 mi SSW 10.4 mph - N/A   Overcast
2:54 PM 60.1 °F 57.0 °F 90% 30.11 in 5.0 mi South 6.9 mph - 0.01 in Rain Light Rain
3:18 PM 60.8 °F 57.2 °F 88% 30.11 in 9.0 mi SSE 4.6 mph - 0.00 in   Mostly Cloudy
3:54 PM 62.1 °F 57.9 °F 86% 30.11 in 10.0 mi SSE 4.6 mph - 0.00 in   Clear
4:54 PM 60.1 °F 57.0 °F 90% 30.12 in 10.0 mi Calm Calm - N/A   Scattered Clouds
5:54 PM 60.1 °F 55.9 °F 86% 30.12 in 10.0 mi Calm Calm - N/A   Overcast
6:54 PM 59.0 °F 55.0 °F 87% 30.12 in 10.0 mi South 4.6 mph - N/A   Clear
7:54 PM 55.0 °F 53.1 °F 93% 30.12 in 8.0 mi Calm Calm - N/A   Clear
8:03 PM 53.6 °F 51.8 °F 94% 30.12 in 1.5 mi Calm Calm - N/A   Clear
8:11 PM 51.8 °F 50.0 °F 94% 30.12 in 0.5 mi Calm Calm - N/A Fog Fog
8:14 PM 51.8 °F 50.0 °F 94% 30.12 in 0.2 mi Calm Calm - N/A Fog Fog
8:38 PM 51.8 °F 48.2 °F 88% 30.12 in 0.2 mi Calm Calm - N/A Fog Fog
8:54 PM 51.1 °F 50.0 °F 96% 30.12 in 0.2 mi Calm Calm - N/A Fog Fog
9:11 PM 50.0 °F 48.2 °F 94% 30.11 in 0.2 mi Calm Calm - N/A Fog Fog
9:17 PM 51.8 °F 48.2 °F 88% 30.11 in 1.0 mi Calm Calm - N/A   Clear
9:21 PM 51.8 °F 50.0 °F 94% 30.11 in 4.0 mi Calm Calm - N/A   Clear
9:54 PM 55.0 °F 52.0 °F 89% 30.10 in 10.0 mi South 3.5 mph - N/A   Clear
10:54 PM 55.0 °F 52.0 °F 89% 30.10 in 10.0 mi Calm Calm - 0.01 in   Clear
11:54 PM 51.1 °F 50.0 °F 96% 30.11 in 4.0 mi Calm Calm - N/A   Partly Cloudy